Regional Weather Roundup
Issued by NWS Columbia, SC

Home | Current Version | Previous Version | Text Only | Print | Product List | Glossary On
Versions: 1 2 3 4 5 6 7 8 9 10 11 12 13 14 15 16 17 18 19 20 21 22 23 24 25 26 27 28 29 30 31 32 33 34 35 36 37 38 39 40 41 42 43 44 45 46 47 48 49 50
472
ASUS42 KCAE 281910
RWRCAE
REGIONAL WEATHER ROUNDUP
NATIONAL WEATHER SERVICE COLUMBIA SC
300 PM EDT SAT MAY 28 2016

NOTE: "FAIR" INDICATES FEW OR NO CLOUDS BELOW 12,000 FEET WITH NO
SIGNIFICANT WEATHER AND/OR OBSTRUCTIONS TO VISIBILITY.

NOT ALL STATIONS ARE QUALITY CONTROLLED BY THE NATIONAL
WEATHER SERVICE. USE DATA WITH CAUTION...ESPECIALLY
DEWPOINT OBSERVATIONS.

SCZ001>056-GAZ040-063>065-077-282000-
...UPSTATE SOUTH CAROLINA...

CITY           SKY/WX    TMP DP  RH WIND       PRES   REMARKS
ANDERSON       MOSUNNY   83  59  44 VRB3      30.13F
LIBERTY        MOCLDY    82  59  45 E5        30.14F
SPARTANBURG    PTSUNNY   82  57  42 CALM      30.15F
CLEMSON        LGT RAIN  84  59  42 VRB7      30.15F
GREENVILLE     SUNNY     82  57  42 VRB5      30.15F
GREENWOOD      CLOUDY    79  62  56 NE6       30.16F
GREER          PTSUNNY   82  60  47 VRB3      30.14F
ROCK HILL      PTSUNNY   84  52  33 CALM      30.15F
CHESTER        CLOUDY    81  55  41 CALM      30.15F
LAURENS        CLOUDY    81  63  54 NE5       30.15F


...CENTRAL SOUTH CAROLINA...

CITY           SKY/WX    TMP DP  RH WIND       PRES   REMARKS
COLUMBIA APT   CLOUDY    85  64  49 E9        30.10F
COLUMBIA OWENS CLOUDY    84  65  52 VRB3      30.11F
MCENTIRE ANGB  CLOUDY    82  67  60 NE8       30.11F
ORANGEBURG     CLOUDY    83  66  56 VRB6      30.10F
SUMTER SHAW    CLOUDY    83  65  54 NE10      30.09F
NEWBERRY       CLOUDY    81  63  54 NE7       30.16F
AIKEN          MOCLDY    79  64  61 N7        30.14F
BARNWELL       FAIR      84  72  65 E5        30.11S
MANNING        LGT RAIN  77  68  73 SE5       30.11S
LANCASTER      PTCLDY    82  63  51 NE6       30.14F
WINNSBORO      CLOUDY    81  64  57 NE6       30.13F


...EASTERN AND COASTAL SOUTH CAROLINA...

CITY           SKY/WX    TMP DP  RH WIND       PRES   REMARKS
N MYRTLE BCH   CLOUDY    78  69  73 E12G21    30.11F
CONWAY         LGT RAIN  70  70 100 CALM      30.12S
MARION         CLOUDY    81  63  54 NE8       30.12S
HARTSVILLE     FAIR      82  63  51 NE8       30.11F
FLORENCE       CLOUDY    84  62  47 E8        30.12F
DARLINGTON     CLOUDY    85  65  51 NE9       30.12F
CHARLESTON APT RAIN      71  67  87 NE12      30.11S FOG
MOUNT PLEASANT RAIN      72  70  94 N7        30.11R
WALTERBORO     LGT RAIN  79  64  61 E9        30.11S
BEAUFORT       LGT RAIN  73  69  87 NE10      30.09F


...EASTERN GEORGIA...

CITY           SKY/WX    TMP DP  RH WIND       PRES   REMARKS
AUGUSTA BUSH F CLOUDY    83  67  58 NE7       30.10F
AUGUSTA DANIEL CLOUDY    83  66  56 N9        30.12F
THOMSON        CLOUDY    83  69  62 NE7       30.16F
WASHINGTON     FAIR      86  63  45 E5        30.11F
CLAXTON        FAIR      84  68  57 NE10      30.08S
SYLVANIA       CLOUDY    83  71  66 CALM      30.10S
STATESBORO     CLOUDY    83  71  67 NE3       30.08F
SAVANNAH       CLOUDY    79  69  71 N8        30.08S


...SOUTHERN NORTH CAROLINA...

CITY           SKY/WX    TMP DP  RH WIND       PRES   REMARKS
CHARLOTTE      PTSUNNY   82  51  34 NE5       30.15F
MONROE         MOSUNNY   84  55  36 VRB3      30.14F
WADESBORO      PTCLDY    86  51  30 NW7       30.13F
ROCKINGHAM     PTCLDY    85  59  41 SE3       30.12F
RUTHERFORDTON  MOSUNNY   83  55  38 S8        30.17F
ASHEVILLE      SUNNY     79  47  32 VRB6      30.20F

$$




USA.gov is the U.S. government's official web portal to all federal, state and local government web resources and services.